TimeEDT,TemperatureF,Dew PointF,Humidity,Sea Level PressureIn,VisibilityMPH,Wind Direction,Wind SpeedMPH,Gust SpeedMPH,PrecipitationIn,Events,Conditions,WindDirDegrees,DateUTC
12:15 AM,30.2,30.2,100,29.84,10.0,Calm,Calm,-,N/A,,Overcast,0,2013-03-19 04:15:00
12:35 AM,32.0,30.2,93,29.82,10.0,Calm,Calm,-,N/A,,Overcast,0,2013-03-19 04:35:00
12:55 AM,32.0,30.2,93,29.82,10.0,Calm,Calm,-,N/A,,Overcast,0,2013-03-19 04:55:00
1:15 AM,32.0,30.2,93,29.82,7.0,Calm,Calm,-,N/A,,Overcast,0,2013-03-19 05:15:00
1:35 AM,32.0,30.2,93,29.82,7.0,Calm,Calm,-,N/A,,Overcast,0,2013-03-19 05:35:00
1:55 AM,32.0,30.2,93,29.80,7.0,Calm,Calm,-,N/A,,Overcast,0,2013-03-19 05:55:00
2:15 AM,32.0,30.2,93,29.81,7.0,North,3.5,-,N/A,,Overcast,10,2013-03-19 06:15:00
2:55 AM,32.0,30.2,93,29.80,10.0,Calm,Calm,-,N/A,,Overcast,0,2013-03-19 06:55:00
3:15 AM,32.0,30.2,93,29.80,7.0,Calm,Calm,-,N/A,,Overcast,0,2013-03-19 07:15:00
3:35 AM,32.0,30.2,93,29.80,7.0,Calm,Calm,-,N/A,,Overcast,0,2013-03-19 07:35:00
3:55 AM,32.0,30.2,93,29.79,7.0,Calm,Calm,-,N/A,,Overcast,0,2013-03-19 07:55:00
4:15 AM,32.0,30.2,93,29.79,7.0,Calm,Calm,-,N/A,,Overcast,0,2013-03-19 08:15:00
4:35 AM,32.0,30.2,93,29.79,3.0,Calm,Calm,-,N/A,,Overcast,0,2013-03-19 08:35:00
4:55 AM,32.0,30.2,93,29.80,3.0,SSW,4.6,-,N/A,,Overcast,210,2013-03-19 08:55:00
5:15 AM,32.0,32.0,100,29.79,2.5,SW,5.8,-,N/A,,Overcast,220,2013-03-19 09:15:00
5:35 AM,32.0,32.0,100,29.81,4.0,SSW,6.9,-,N/A,,Overcast,210,2013-03-19 09:35:00
5:55 AM,32.0,32.0,100,29.82,3.0,Calm,Calm,-,N/A,,Overcast,0,2013-03-19 09:55:00
6:15 AM,35.6,33.8,93,29.84,10.0,NNW,12.7,20.7,N/A,,Overcast,330,2013-03-19 10:15:00
6:35 AM,35.6,32.0,87,29.87,10.0,WNW,11.5,19.6,N/A,,Overcast,300,2013-03-19 10:35:00
6:55 AM,33.8,32.0,93,29.88,10.0,NW,4.6,-,N/A,,Overcast,320,2013-03-19 10:55:00
7:15 AM,33.8,30.2,87,29.90,10.0,West,10.4,-,N/A,,Overcast,280,2013-03-19 11:15:00
7:35 AM,33.8,28.4,81,29.91,10.0,West,6.9,-,N/A,,Overcast,260,2013-03-19 11:35:00
7:55 AM,32.0,23.0,69,29.93,10.0,WNW,8.1,24.2,N/A,,Scattered Clouds,300,2013-03-19 11:55:00
8:15 AM,32.0,23.0,69,29.93,10.0,NW,5.8,17.3,N/A,,Scattered Clouds,310,2013-03-19 12:15:00
8:35 AM,32.0,23.0,69,29.93,10.0,West,6.9,-,N/A,,Mostly Cloudy,260,2013-03-19 12:35:00
8:55 AM,33.8,23.0,65,29.93,10.0,WSW,12.7,18.4,N/A,,Mostly Cloudy,250,2013-03-19 12:55:00
9:15 AM,32.0,23.0,69,29.92,10.0,West,5.8,-,N/A,,Overcast,260,2013-03-19 13:15:00
9:35 AM,33.8,23.0,65,29.92,10.0,SW,11.5,-,N/A,,Mostly Cloudy,230,2013-03-19 13:35:00
9:55 AM,33.8,23.0,65,29.91,10.0,West,9.2,18.4,N/A,,Mostly Cloudy,270,2013-03-19 13:55:00
10:15 AM,33.8,24.8,70,29.91,10.0,WSW,10.4,-,N/A,,Scattered Clouds,250,2013-03-19 14:15:00
10:35 AM,35.6,23.0,60,29.90,10.0,WSW,16.1,21.9,N/A,,Scattered Clouds,240,2013-03-19 14:35:00
10:55 AM,37.4,21.2,52,29.89,10.0,WSW,11.5,18.4,N/A,,Scattered Clouds,250,2013-03-19 14:55:00
11:15 AM,37.4,21.2,52,29.89,10.0,WSW,16.1,23.0,N/A,,Clear,250,2013-03-19 15:15:00
11:35 AM,37.4,19.4,48,29.89,10.0,West,19.6,25.3,N/A,,Clear,260,2013-03-19 15:35:00
11:55 AM,41.0,19.4,42,29.90,10.0,West,16.1,26.5,N/A,,Clear,260,2013-03-19 15:55:00
12:15 PM,41.0,17.6,39,29.89,10.0,West,19.6,25.3,N/A,,Clear,260,2013-03-19 16:15:00
12:35 PM,41.0,19.4,42,29.89,10.0,WSW,13.8,24.2,N/A,,Clear,250,2013-03-19 16:35:00
12:55 PM,42.8,17.6,36,29.88,10.0,WSW,16.1,23.0,N/A,,Clear,250,2013-03-19 16:55:00
1:15 PM,42.8,14.0,31,29.88,10.0,West,21.9,28.8,N/A,,Clear,280,2013-03-19 17:15:00
1:35 PM,44.6,14.0,29,29.86,10.0,West,16.1,26.5,N/A,,Clear,260,2013-03-19 17:35:00
1:55 PM,44.6,12.2,27,29.84,10.0,West,16.1,26.5,N/A,,Clear,270,2013-03-19 17:55:00
2:15 PM,44.6,14.0,29,29.86,10.0,West,17.3,25.3,N/A,,Clear,280,2013-03-19 18:15:00
2:35 PM,44.6,12.2,27,29.86,10.0,West,19.6,27.6,N/A,,Clear,260,2013-03-19 18:35:00
2:55 PM,46.4,12.2,25,29.86,10.0,West,19.6,27.6,N/A,,Clear,260,2013-03-19 18:55:00
3:15 PM,46.4,8.6,22,29.86,10.0,WNW,18.4,29.9,N/A,,Clear,290,2013-03-19 19:15:00
3:35 PM,46.4,6.8,20,29.87,10.0,WNW,13.8,28.8,N/A,,Clear,290,2013-03-19 19:35:00
3:55 PM,44.6,6.8,21,29.87,10.0,West,16.1,29.9,N/A,,Clear,260,2013-03-19 19:55:00
4:15 PM,44.6,-0.4,15,29.88,10.0,West,25.3,31.1,N/A,,Clear,280,2013-03-19 20:15:00
4:35 PM,44.6,-0.4,15,29.89,10.0,West,25.3,38.0,N/A,,Clear,270,2013-03-19 20:35:00
4:55 PM,44.6,-5.8,12,29.89,10.0,West,25.3,39.1,N/A,,Clear,280,2013-03-19 20:55:00
5:15 PM,44.6,-5.8,12,29.90,10.0,West,27.6,40.3,N/A,,Clear,270,2013-03-19 21:15:00
5:35 PM,44.6,-9.4,10,29.91,10.0,West,20.7,50.6,N/A,,Clear,280,2013-03-19 21:35:00
5:55 PM,42.8,-13.0,9,29.91,10.0,West,25.3,41.4,N/A,,Clear,280,2013-03-19 21:55:00
6:15 PM,42.8,-13.0,9,29.93,10.0,West,31.1,42.6,N/A,,Clear,280,2013-03-19 22:15:00
6:35 PM,41.0,-11.2,11,29.93,10.0,WNW,18.4,38.0,N/A,,Clear,290,2013-03-19 22:35:00
6:55 PM,41.0,-9.4,12,29.94,10.0,WNW,17.3,31.1,N/A,,Clear,300,2013-03-19 22:55:00
7:15 PM,39.2,-5.8,15,29.94,10.0,WNW,11.5,25.3,N/A,,Clear,300,2013-03-19 23:15:00
7:35 PM,37.4,-5.8,16,29.96,10.0,WNW,15.0,19.6,N/A,,Clear,300,2013-03-19 23:35:00
7:55 PM,37.4,-4.0,17,29.96,10.0,WNW,9.2,16.1,N/A,,Clear,300,2013-03-19 23:55:00
8:15 PM,37.4,-5.8,16,29.97,10.0,WNW,10.4,24.2,N/A,,Clear,290,2013-03-20 00:15:00
8:35 PM,35.6,-4.0,18,29.97,10.0,WNW,11.5,17.3,N/A,,Clear,290,2013-03-20 00:35:00
8:55 PM,35.6,-4.0,18,29.98,10.0,WNW,10.4,25.3,N/A,,Clear,300,2013-03-20 00:55:00
9:35 PM,33.8,-4.0,20,30.00,10.0,WNW,8.1,-,N/A,,Clear,290,2013-03-20 01:35:00
9:55 PM,33.8,-4.0,20,30.00,10.0,West,9.2,-,N/A,,Clear,280,2013-03-20 01:55:00
10:15 PM,33.8,-0.4,23,30.01,10.0,West,8.1,-,N/A,,Clear,270,2013-03-20 02:15:00
10:35 PM,33.8,-0.4,23,30.01,10.0,West,12.7,18.4,N/A,,Clear,270,2013-03-20 02:35:00
10:55 PM,33.8,-0.4,23,30.01,10.0,West,11.5,23.0,N/A,,Clear,270,2013-03-20 02:55:00
11:15 PM,32.0,-4.0,21,30.01,10.0,West,13.8,19.6,N/A,,Clear,280,2013-03-20 03:15:00
11:35 PM,32.0,-4.0,21,30.01,10.0,WNW,6.9,-,N/A,,Clear,300,2013-03-20 03:35:00
11:55 PM,32.0,-4.0,21,30.01,10.0,West,8.1,-,N/A,,Clear,280,2013-03-20 03:55:00